GW2741 Weather Reports


time (UTC)temp
C
wind
direction
speed
KPH
gust
KPH
rain 1hr
cm
rain 24hr
cm
rain mn
cm
humidity
%
barometer
mb
20260905223642 14 170 24.1 33.8 0.00 0.36 2.95 65 1012.8
20260905222742 14 174 17.7 30.6 0.00 0.38 2.95 65 1013.2
20260905221842 14 168 16.1 24.1 0.00 0.38 2.95 65 1013.3
20260905220942 14 154 14.5 22.5 0.00 0.38 2.95 65 1013.4
20260905220042 14 159 16.1 24.1 0.00 0.38 2.95 66 1013.7
20260905215142 14 163 17.7 27.4 0.00 0.38 2.95 66 1013.9
20260905214242 13 160 17.7 25.7 0.00 0.38 2.95 67 1014.1
20260905213342 13 176 14.5 20.9 0.00 0.38 2.95 67 1014.0
20260905212442 13 178 12.9 20.9 0.00 0.38 2.95 67 1014.4
20260905211542 13 171 12.9 20.9 0.00 0.38 2.95 67 1014.5
20260905210642 13 161 12.9 19.3 0.00 0.38 2.95 67 1014.8
20260905205742 14 165 12.9 17.7 0.00 0.38 2.95 68 1014.8
20260905204842 14 171 12.9 17.7 0.00 0.38 2.95 69 1015.0
20260905203942 13 166 9.7 16.1 0.00 0.38 2.95 68 1015.2
20260905203042 13 173 8.0 12.9 0.00 0.38 2.95 67 1015.4
20260905201242 14 165 8.0 12.9 0.00 0.38 2.95 66 1015.4
20260905200342 14 179 8.0 11.3 0.00 0.38 2.95 66 1015.4
20260905195442 14 167 6.4 11.3 0.00 0.38 2.95 65 1015.5
20260905193642 14 176 6.4 8.0 0.00 0.38 2.95 64 1015.6
20260905192742 14 177 6.4 11.3 0.00 0.43 2.95 63 1015.7
20260905191842 14 177 9.7 14.5 0.00 0.43 2.95 63 1015.8
20260905190943 15 166 8.0 12.9 0.00 0.43 2.95 62 1015.5
20260905184242 15 174 6.4 8.0 0.00 0.43 2.95 61 1015.7
20260905183342 15 170 6.4 9.7 0.00 0.43 2.95 60 1015.9
20260905182442 15 177 6.4 9.7 0.00 0.43 2.95 61 1015.6
20260905181542 15 174 6.4 11.3 0.00 0.43 2.95 61 1015.7
20260905180642 16 168 4.8 8.0 0.00 0.43 2.95 60 1015.6
20260905175742 16 165 6.4 11.3 0.00 0.43 2.95 60 1015.5
20260905173944 16 172 4.8 8.0 0.00 0.43 2.95 60 1015.7
20260905173042 16 169 3.2 6.4 0.00 0.43 2.95 60 1015.9
20260905171242 16 173 4.8 6.4 0.00 0.43 2.95 57 1016.1
20260905170342 16 165 4.8 8.0 0.00 0.43 2.95 56 1015.9
20260905165442 16 178 6.4 8.0 0.00 0.43 2.95 56 1015.9
20260905164544 16 162 6.4 11.3 0.00 0.43 2.95 56 1015.9
20260905163642 16 158 3.2 8.0 0.00 0.43 2.95 56 1015.8
20260905162743 16 223 1.6 6.4 0.00 0.43 2.95 55 1015.8
20260905161842 16 270 1.6 6.4 0.00 0.46 2.95 55 1015.9
20260905160042 17 142 3.2 6.4 0.00 0.46 2.95 54 1016.2
20260905155144 16 152 4.8 8.0 0.00 0.46 2.95 54 1016.4
20260905154242 16 154 4.8 8.0 0.00 0.46 2.95 55 1016.5
20260905153342 16 168 6.4 12.9 0.00 0.46 2.95 54 1016.3
20260905151542 16 177 8.0 12.9 0.00 0.46 2.95 56 1016.4
20260905150644 16 164 8.0 12.9 0.00 0.46 2.95 55 1016.7
20260905145742 16 131 4.8 8.0 0.00 0.46 2.95 54 1016.7
20260905144842 16 157 3.2 8.0 0.00 0.46 2.95 53 1017.0
20260905143942 16 236 4.8 9.7 0.00 0.46 2.95 52 1017.1
20260905143042 17 124 4.8 11.3 0.00 0.46 2.95 49 1017.0
20260905140342 17 348 4.8 6.4 0.00 0.46 2.95 52 1017.1
20260905134542 17 138 4.8 8.0 0.00 0.46 2.95 55 1016.7
20260905133642 16 171 3.2 8.0 0.00 0.46 2.95 56 1017.0
20260905132742 16 108 3.2 6.4 0.00 0.46 2.95 57 1017.0
20260905130042 16 301 6.4 12.9 0.00 0.46 2.95 61 1016.9
20260905125142 15 270 6.4 16.1 0.00 0.46 2.95 62 1017.0
20260905124242 15 153 8.0 14.5 0.00 0.46 2.95 63 1017.1
20260905123342 15 291 8.0 17.7 0.00 0.48 2.95 64 1017.2
20260905122442 15 296 9.7 17.7 0.00 0.48 2.95 63 1017.0
20260905121542 15 304 8.0 16.1 0.00 0.48 2.95 62 1017.0
20260905120642 15 308 8.0 17.7 0.00 0.48 2.95 60 1016.7
20260905115742 15 346 8.0 16.1 0.00 0.48 2.95 58 1016.5
20260905114842 16 342 6.4 14.5 0.00 0.48 2.95 56 1016.7
20260905113942 16 292 8.0 12.9 0.00 0.48 2.95 54 1016.4
20260905112144 17 276 4.8 9.7 0.00 0.48 2.95 54 1016.4
20260905111244 17 269 3.2 9.7 0.00 0.48 2.95 51 1016.3
20260905110342 18 255 6.4 12.9 0.00 0.48 2.95 52 1016.2
20260905105442 18 203 4.8 12.9 0.00 0.48 2.95 53 1016.2
20260905104544 18 269 8.0 16.1 0.00 0.51 2.95 57 1016.0
20260905103642 17 313 6.4 12.9 0.00 0.51 2.95 60 1016.1
20260905102742 16 286 6.4 16.1 0.00 0.51 2.95 63 1016.2
20260905101842 17 205 6.4 12.9 0.00 0.51 2.95 66 1015.8
20260905100942 16 300 4.8 9.7 0.00 0.51 2.95 65 1015.9
20260905100042 15 348 4.8 12.9 0.00 0.51 2.95 64 1015.7
20260905095142 17 242 6.4 16.1 0.00 0.51 2.95 65 1015.5
20260905094242 17 246 4.8 12.9 0.00 0.51 2.95 65 1015.3
20260905093342 16 280 8.0 12.9 0.00 0.51 2.95 70 1015.3
20260905091542 16 323 6.4 12.9 0.00 0.53 2.95 72 1015.4
20260905090642 15 285 6.4 14.5 0.00 0.53 2.95 72 1015.2
20260905085742 15 282 8.0 14.5 0.00 0.53 2.95 72 1015.0
20260905084842 14 285 8.0 17.7 0.00 0.53 2.95 72 1015.1
20260905083942 15 300 11.3 29.0 0.00 0.53 2.95 73 1014.8
20260905083042 15 280 9.7 17.7 0.00 0.53 2.95 77 1014.7
20260905080342 14 289 8.0 16.1 0.00 0.53 2.95 81 1014.4
20260905075444 14 301 8.0 17.7 0.03 0.53 2.95 81 1014.3
20260905074542 13 291 9.7 16.1 0.13 0.53 2.95 81 1014.2
20260905073642 13 292 9.7 17.7 0.15 0.53 2.95 81 1014.1
20260905072742 13 280 9.7 17.7 0.15 0.53 2.95 82 1014.2
20260905071842 12 307 9.7 17.7 0.15 0.53 2.95 81 1014.2
20260905070942 12 287 8.0 17.7 0.15 0.53 2.95 81 1014.0
20260905070042 12 277 3.2 6.4 0.00 0.53 2.95 81 1013.8
20260905065142 12 282 8.0 17.7 0.00 0.48 2.92 81 1013.9
20260905064244 12 257 4.8 14.5 0.00 0.43 2.92 81 1013.8
20260905063342 12 297 8.0 14.5 0.00 0.38 2.92 81 1013.4
20260905062442 12 223 4.8 12.9 0.00 0.38 2.92 80 1013.4
20260905061542 12 282 4.8 9.7 0.00 0.38 2.92 83 1013.5